This demonstration page uses our WeatherBlox Daily Observations layout. Learn more.

Left ArrowRight Arrow

39.01783, -85.05884

Hourly Observations for March 8, 2020

Temp ( °F °C ) Dew Point ( °F °C ) Humidity (%) Winds ( mph kmh ) Pressure ( in mb ) Visibility ( mi km ) Precip ( " mm )
12:52 am 00:52 Clear 36 2.2 21 -6.1 55 55 S 7 11 30.46 1032 10 16 0.00 0.00
1:52 am 01:52 Clear 35 1.7 21 -6.1 57 57 S 6 9 30.46 1031 10 16 0.00 0.00
3:52 am 03:52 Clear 34 1.1 21 -6.1 59 59 S 7 11 30.45 1031 10 16 0.00 0.00
4:52 am 04:52 Clear 34 1.1 21 -6.1 59 59 S 7 11 30.44 1031 10 16 0.00 0.00
5:52 am 05:52 Mostly Clear 34 1.1 21 -6.1 59 59 S 6 9 30.44 1031 10 16 0.00 0.00
6:52 am 06:52 Mostly Clear 33 0.6 21 -6.1 61 61 S 5 7 30.45 1031 10 16 0.00 0.00
7:52 am 07:52 Mostly Clear 33 0.6 20 -6.7 58 58 S 7 11 30.46 1031 10 16 0.00 0.00
8:52 am 08:52 Partly Cloudy 33 0.6 24 -4.4 70 70 S 7 11 30.48 1032 10 16 0.00 0.00
9:52 am 09:52 Partly Cloudy 43 6.1 22 -5.6 43 43 SSW 12 19 30.47 1032 10 16 0.00 0.00
10:52 am 10:52 Partly Cloudy 49 9.4 23 -5 36 36 SW 17 28 30.46 1032 10 16 0.00 0.00
11:52 am 11:52 Partly Cloudy 52 11.1 23 -5 32 32 SSW 15 24 30.44 1031 10 16 0.00 0.00
12:52 pm 12:52 Partly Cloudy 57 13.9 24 -4.4 28 28 SSW 10 17 30.42 1030 10 16 0.00 0.00
1:52 pm 13:52 Partly Cloudy 60 15.6 24 -4.4 25 25 SSW 13 20 30.40 1029 10 16 0.00 0.00
2:52 pm 14:52 Partly Cloudy 63 17.2 23 -5 22 22 SSW 13 20 30.37 1028 10 16 0.00 0.00
3:52 pm 15:52 Partly Cloudy 64 17.8 23 -5 21 21 SSW 14 22 30.34 1028 10 16 0.00 0.00
4:52 pm 16:52 Partly Cloudy 65 18.3 24 -4.4 21 21 S 13 20 30.32 1027 10 16 0.00 0.00
5:52 pm 17:52 Partly Cloudy 64 17.8 22 -5.6 20 20 SSW 14 22 30.31 1026 10 16 0.00 0.00
6:52 pm 18:52 Partly Cloudy 62 16.7 20 -6.7 20 20 SSW 10 17 30.30 1026 10 16 0.00 0.00
7:52 pm 19:52 Partly Cloudy 57 13.9 23 -5 27 27 SSW 7 11 30.31 1026 10 16 0.00 0.00
8:52 pm 20:52 Mostly Clear 53 11.7 24 -4.4 32 32 S 9 15 30.31 1027 10 16 0.00 0.00
9:52 pm 21:52 Clear 53 11.7 25 -3.9 34 34 S 9 15 30.30 1026 10 16 0.00 0.00
10:52 pm 22:52 Clear 49 9.4 26 -3.3 41 41 S 8 13 30.30 1026 10 16 0.00 0.00
11:52 pm 23:52 Clear 49 9.4 26 -3.3 41 41 SSW 8 13 30.31 1027 10 16 0.00 0.00

Powered by AerisWeather